HST 1 20580U 90037B 26035.33295654 .00008182 00000+0 27483-3 0 9992 2 20580 28.4666 267.4622 0001954 99.7256 260.3560 15.28943129768204 POLAR 1 23802U 96013A 26033.24819365 .00000236 00000+0 00000+0 0 9995 2 23802 79.6983 228.5855 6333714 213.6433 82.0506 1.29845968143105 SWAS 1 25560U 98071A 26035.51708509 .00003671 00000+0 24121-3 0 9993 2 25560 69.8947 209.3887 0002793 113.5627 246.5830 15.08529750477251 CXO 1 25867U 99040B 26034.50897227 .00000739 00000+0 00000+0 0 9992 2 25867 54.0018 120.6888 8050674 310.8579 0.1951 0.37804724 16822 XMM-NEWTON 1 25989U 99066A 26031.72532401 .00000094 00000+0 00000+0 0 9990 2 25989 65.1743 284.7836 4724780 67.3227 359.9893 0.50131279 22321 TERRA 1 25994U 99068A 26035.44075014 .00000538 00000+0 11890-3 0 9999 2 25994 97.9662 90.1337 0001007 303.7210 171.9685 14.60977135390223 CLUSTER II-FM7 (SAMBA) 1 26410U 00041A 26023.07807862 .00004677 00000+0 00000+0 0 9991 2 26410 148.3592 29.7174 8835954 245.6118 359.2301 0.44786329 19664 CLUSTER II-FM8 (TANGO) 1 26464U 00045B 26019.78457485 .00005071 00000+0 00000+0 0 9998 2 26464 148.5838 29.9991 8833034 245.7591 359.3805 0.44425532 19644 ODIN 1 26702U 01007A 26035.05050392 .00042160 00000+0 61667-3 0 9996 2 26702 97.4135 69.7860 0001360 292.2933 67.8177 15.55499260368609 TIMED 1 26998U 01055B 26035.45388887 .00002234 00000+0 20830-3 0 9998 2 26998 74.0695 142.2079 0002038 314.0326 46.0691 14.94907758310985 CORIOLIS 1 27640U 03001A 26035.50968823 .00000162 00000+0 96755-4 0 9994 2 27640 98.7153 44.4082 0013153 232.5692 127.4288 14.19898835195393 SORCE 1 27651U 03004A 26035.14318156 .00004197 00000+0 31808-3 0 9996 2 27651 39.9912 300.2741 0016737 181.0418 179.0343 15.02807173251874 MOST 1 27843U 03031D 26035.51203056 .00000103 00000+0 67505-4 0 9999 2 27843 98.7077 45.0735 0008768 276.4424 83.5754 14.21289587171868 SCISAT 1 1 27858U 03036A 26035.45456620 .00000884 00000+0 11805-3 0 9997 2 27858 73.9288 75.0336 0007064 181.8136 178.3016 14.81245320211794 SWIFT 1 28485U 04047A 26035.43683477 .00059396 00000+0 80229-3 0 9995 2 28485 20.5540 119.6633 0002383 264.1600 95.8572 15.56017881166077 HINODE (SOLAR-B) 1 29479U 06041A 26035.45547958 .00000859 00000+0 15675-3 0 9993 2 29479 98.0635 53.5255 0017278 353.7449 6.3538 14.68415051 35399 SHIJIAN-6 02A (SJ-6 02A) 1 29505U 06046A 26035.56476800 .00011981 00000+0 64106-3 0 9998 2 29505 97.6550 75.6690 0001961 212.7388 147.3722 15.15201860 52176 SHIJIAN-6 02B (SJ-6 02B) 1 29506U 06046B 26035.56409573 .00002848 00000+0 22848-3 0 9991 2 29506 97.6987 65.5868 0013339 146.9890 213.2170 15.00825718 50844 FGRST (GLAST) 1 33053U 08029A 26035.40358931 .00004808 00000+0 18442-3 0 9993 2 33053 25.5832 45.8989 0008315 197.3499 162.6755 15.23054936975565 SDO 1 36395U 10005A 26033.15753127 -.00000091 00000+0 00000+0 0 9996 2 36395 34.3665 88.3951 0000722 125.3144 233.1380 1.00276361 58706 CRYOSAT 2 1 36508U 10013A 26035.47941385 .00000169 00000+0 41292-4 0 9991 2 36508 92.0223 245.1678 0002531 83.0651 277.0844 14.51902839838822 X-SAT 1 37389U 11015C 26035.53519833 .00000235 00000+0 11729-3 0 9993 2 37389 98.3372 18.9794 0014534 17.1379 343.0289 14.25157663768782 GCOM-W1 (SHIZUKU) 1 38337U 12025A 26035.44169960 .00000784 00000+0 18406-3 0 9999 2 38337 98.2272 337.9670 0001402 80.6852 32.1867 14.57130730729700 NUSTAR 1 38358U 12031A 26035.58335647 .00009248 00000+0 54021-3 0 9998 2 38358 6.0272 307.7378 0009630 294.0771 63.4844 15.07236326 1307 NEOSSAT 1 39089U 13009D 26035.45429213 .00000237 00000+0 96689-4 0 9991 2 39089 98.4105 218.6632 0009902 283.5836 76.4247 14.35766296677695 BRITE-AUSTRIA 1 39091U 13009F 26035.44897859 .00000278 00000+0 10922-3 0 9998 2 39091 98.3919 218.1935 0009078 277.4276 82.5879 14.36475124677995 IRIS 1 39197U 13033A 26035.48893568 .00001825 00000+0 21652-3 0 9990 2 39197 97.9397 235.1277 0025353 35.4437 324.8456 14.85529773680676 HISAKI (SPRINT-A) 1 39253U 13049A 26035.41299001 .00000095 00000+0 44185-4 0 9990 2 39253 29.7180 175.0345 0136852 20.3163 340.2789 13.55527415613399 CASSIOPE 1 39265U 13055A 26035.51562200 .00044398 -45852-6 55465-3 0 9993 2 39265 80.9157 226.7395 0325857 146.7573 215.4603 15.15887050647507 STSAT-3 1 39422U 13066G 26035.56835848 .00003586 00000+0 27874-3 0 9991 2 39422 97.6080 7.8407 0014523 117.6544 242.6157 15.01842827664293 SWARM B 1 39451U 13067A 26035.52401168 .00004839 00000+0 17862-3 0 9992 2 39451 87.7441 22.5404 0002940 99.7698 260.3883 15.27517461662985 SWARM A 1 39452U 13067B 26035.43806103 .00012151 00000+0 23222-3 0 9994 2 39452 87.3337 105.4658 0002860 93.9932 266.1655 15.47953633685697 SWARM C 1 39453U 13067C 26035.43796188 .00012056 00000+0 23038-3 0 9995 2 39453 87.3333 104.0489 0002874 93.2970 266.8618 15.47955282685655 BRITE-CA1 (TORONTO) 1 40020U 14033L 26035.33033125 .00001138 00000+0 17935-3 0 9993 2 40020 97.9523 166.8997 0078597 343.1899 16.6706 14.72372095622660 OCO 2 1 40059U 14035A 26035.48609704 .00000692 00000+0 16354-3 0 9993 2 40059 98.2276 338.7551 0001525 73.6631 286.4735 14.57134796616729 BRITE-PL2 (HEWELIUSZ) 1 40119U 14049B 26035.52202879 .00003709 00000+0 35289-3 0 9992 2 40119 97.8983 146.6679 0014077 184.2943 175.8158 14.93994518621636 MMS 1 1 40482U 15011A 26035.58335647 -.00001881 00000+0 00000+0 0 9990 2 40482 70.3412 350.6278 8448056 164.6343 93.2304 0.28331010 1381 MMS 2 1 40483U 15011B 26035.58335647 -.00001882 00000+0 00000+0 0 9992 2 40483 70.3376 350.6188 8449634 164.6504 93.1954 0.28330993 1382 MMS 3 1 40484U 15011C 26035.58335647 -.00001881 00000+0 00000+0 0 9992 2 40484 70.3437 350.6349 8449508 164.6461 93.1917 0.28330993 1381 MMS 4 1 40485U 15011D 26035.58335647 -.00001882 00000+0 00000+0 0 9994 2 40485 70.3444 350.6265 8450783 164.6325 93.2269 0.28331015 1380 ASTROSAT 1 40930U 15052A 26035.28136184 .00002390 00000+0 21059-3 0 9991 2 40930 5.9982 31.8139 0008543 295.0481 64.8760 14.82194491560077 DAMPE 1 41173U 15078A 26035.52042860 .00002302 00000+0 80875-4 0 9998 2 41173 97.4560 40.3660 0011800 178.6102 181.5174 15.30375488564256 PISAT 1 41784U 16059B 26035.51093449 .00001479 00000+0 26087-3 0 9992 2 41784 97.8175 41.6980 0027676 269.5728 90.2307 14.68681953500263 HXMT (HUIYAN) 1 42758U 17034A 26035.53222870 .00006379 00000+0 32464-3 0 9992 2 42758 43.0128 200.9515 0031353 22.6848 337.5378 15.17015689477505 FLYING LAPTOP 1 42831U 17042G 26035.56592528 .00002278 00000+0 18594-3 0 9998 2 42831 97.4215 196.7341 0015442 210.3413 149.6919 15.00279641466560 ZHANGHENG 1-01 (CSES-1) 1 43194U 18015C 26035.55936703 .00010502 00000+0 47379-3 0 9990 2 43194 97.6700 198.6870 0016224 18.0267 342.1540 15.21084207444483 SALSAT 1 46495U 20068K 26035.46742804 .00010533 00000+0 39397-3 0 9990 2 46495 97.8826 30.6958 0011858 54.3040 305.9299 15.27465777295082 IXPE 1 49954U 21121A 26035.50002314 .00020691 00000+0 12193-2 0 9994 2 49954 0.2289 240.3117 0007144 236.2588 234.1088 15.08740441 5760